KUIPER-00061

导读

KUIPER-00061是美国亚马逊柯伊伯(Project Kuiper)低轨互联网星座的成员卫星,于2025年6月23日发射,是柯伊伯星座大规模部署阶段的组网卫星之一。该星座计划发射3236颗卫星,旨在为全球尤其是偏远地区提供高速低延迟的卫星互联网服务,并与亚马逊云服务深度整合,提供云通信一体化解决方案。按FCC要求,柯伊伯星座需在2026年7月前完成半数卫星发射,KUIPER-00061的发射是亚马逊实现星座组网目标的重要一步。

Basic Information
目录编号:
64521
目录名称:
KUIPER-00061
国际标识:
2025-134X
轨道中心:
EARTH
卫星名称:
KUIPER-00061
卫星全名:
KUIPER-00061
卫星状态:
在轨 (已飞行449 天)
发射日期:
2025-06-23 UTC
国别 :
美国 (US)
星等 :
--
This satellite is enrolled in the Space Conjunction Data Service (SCDS) and the current flight risk assessment level is: No High Risk
Orbit Information
数据来源 国际轨道数据 AOE轨道数据
星历时间 2026-09-15T15:50:52+0800
14小时前
查看轨道信息
2026-09-10T21:00:00+0800
5天前
查看轨道信息
半长轴 7007.652km 7007.692km
偏心率 0.0000939 0.0000972
轨道倾角 51.899° 51.899°
近地点辐角 110.355° 78.661°
升交点赤经 109.527° 130.691°
平近点角 249.752° 331.024°
近地点 628.856km 628.873km
远地点 630.174km 630.237km
周期 97.301分钟 97.302分钟
每日圈数 14.799397 14.79927
Detailed Information
使用方式:
暂无
2D Orbit Map
3D Orbit Map
Orbit Altitude Analysis Chart
Orbit Inclination Analysis Chart
Orbit Comprehensive Analysis Chart
View Comprehensive Chart
Miss Distance Evolution Trend with All Objects Subscribe to Flight Safety Assessment
Collision Probability Evolution Trend with All Objects Subscribe to Flight Safety Assessment